Location: Home
(42.5358°N, 72.7383°W)
Time: 18:04:54
(UTC-05:00)

A-11 Canister half - Pass Details

Date: 02 December 2021
Orbit: 1516 x 1684 km, 47.2° (Epoch: 18 January)

Event Time Altitude Azimuth Distance (km) Brightness Sun altitude
Rises 15:11:35 0° 293° (WNW) 4,930 12.0 9.2°
Reaches altitude 10° 15:15:34 10° 280° (W) 3,947 11.8 8.6°
Maximum altitude 15:22:56 23° 233° (SW) 3,007 12.5 7.6°
Drops below altitude 10° 15:30:16 10° 185° (S) 3,915 11.9 6.5°
Sets 15:34:15 0° 172° (S) 4,882 12.1 5.9°
